Location: Bogis-Bossey
(46.3500°N, 6.1667°E)
Time: 18:21:22
(UTC+00:00)

Cosmos 1802 Rocket - Pass Details

Date: 17 August 2022
Orbit: 954 x 1012 km, 82.9° (Epoch: 30 September)

Event Time Altitude Azimuth Distance (km) Brightness Sun altitude
Rises 19:51:21 0° 352° (N) 3,758 7.7 -11.6°
Reaches altitude 10° 19:53:56 10° 355° (N) 2,804 7.0 -11.9°
Maximum altitude 20:00:23 71° 80° (E) 1,067 4.1 -12.8°
Enters shadow 20:06:35 11° 164° (SSE) 2,714 5.9 -13.7°
